Location: Unspecified
(0.0000°N, 0.0000°E)
Time: 09:04:06
(UTC+00:00)

Explorer 11/Cluster Stage 4 - Pass Details

Date: 18 July 2020
Orbit: 467 x 1259 km, 28.8° (Epoch: 03 August)

Event Time Altitude Azimuth Distance (km) Brightness Sun altitude
Rises 13:48:00 0° 331° (NNW) 3,464 10.3 57.6°
Reaches altitude 10° 13:51:30 10° 352° (N) 2,690 9.9 56.9°
Maximum altitude 13:55:31 17° 29° (NNE) 2,408 9.4 56.1°
Drops below altitude 10° 13:59:57 10° 66° (ENE) 3,015 9.5 55.3°
Sets 14:04:12 0° 85° (E) 4,092 10.0 54.4°
